Santa Ynez, CA

6:00 AM PDT on June 24, 2017 (GMT -0700)
Santa Ynez

Weather History for KIZA - September, 2013

Change the Weather History Date:

Sunday, September 8, 2013

  Actual Average (KSBA) Record (KSBA)
Temperature  
Mean Temperature 71 °F -  
Max Temperature 89 °F 76 °F 92 °F (1984)
Min Temperature 53 °F 57 °F 46 °F (1946)
Cooling Degree Days 6    
Growing Degree Days 21 (Base 50)    
Moisture  
Dew Point 52 °F    
Average Humidity 69    
Maximum Humidity 100    
Minimum Humidity 22    
Precipitation  
Precipitation 0.00 in - - ()
Sea Level Pressure  
Sea Level Pressure 29.84 in    
Wind  
Wind Speed 3 mph (West)    
Max Wind Speed 13 mph    
Max Gust Speed -    
Visibility 7 miles    
Events Fog    
Averages and records for this station are not official NWS values.
T = Trace of Precipitation, MM = Missing Value Source: NWS Daily Summary

Daily Weather History Graph

Daily Weather History Graph

Search for Another Location

Airport or City:

Trip Planner

Search our weather history database for the weather conditions in past years. The results will help you decide how hot, cold, wet, or windy it might be!

Date:

Astronomy

Sep. 08, 2013 Rise Set
Actual Time 6:38 AM PDT 7:16 PM PDT
Civil Twilight 6:13 AM PDT 7:41 PM PDT
Nautical Twilight 5:43 AM PDT 8:11 PM PDT
Astronomical Twilight 5:12 AM PDT 8:42 PM PDT
Moon 9:50 AM PDT (9/8) 9:06 PM PDT (9/8)
Length of Visible Light 13h 28m
Length of Day
12h 37m
Waxing Crescent, 12% of the Moon is Illuminated
Sep 8
Waxing Crescent
Sep 12
First Quarter
Sep 19
Full
Sep 26
Last Quarter
Oct 4
New

Hourly Weather History & Observations

Time (PDT) Temp. Dew Point Humidity Pressure Visibility Wind Dir Wind Speed Gust Speed Precip Events Conditions
12:15 AM 55.4 °F 53.6 °F 94% 29.89 in 7.0 mi Calm Calm - N/A   Clear
12:35 AM 55.4 °F 53.6 °F 94% 29.89 in 7.0 mi Calm Calm - N/A   Clear
12:55 AM 55.4 °F 53.6 °F 94% 29.89 in 7.0 mi Calm Calm - N/A   Clear
1:15 AM 55.4 °F 53.6 °F 94% 29.89 in 5.0 mi Calm Calm - N/A   Clear
1:35 AM 55.4 °F 53.6 °F 94% 29.88 in 5.0 mi Calm Calm - N/A   Clear
1:55 AM 53.6 °F 53.6 °F 100% 29.88 in 5.0 mi Calm Calm - N/A   Clear
2:15 AM 53.6 °F 53.6 °F 100% 29.88 in 1.8 mi Calm Calm - N/A   Mist
2:35 AM 53.6 °F 53.6 °F 100% 29.88 in 2.5 mi Calm Calm - N/A   Clear
2:55 AM 53.6 °F 51.8 °F 94% 29.87 in 1.2 mi Calm Calm - N/A   Mostly Cloudy
3:15 AM 53.6 °F 53.6 °F 100% 29.87 in 0.2 mi Calm Calm - N/A Fog Fog
3:35 AM 53.6 °F 53.6 °F 100% 29.87 in 0.2 mi Calm Calm - N/A Fog Fog
3:55 AM 53.6 °F 53.6 °F 100% 29.87 in 0.2 mi Calm Calm - N/A Fog Fog
4:15 AM 53.6 °F 53.6 °F 100% 29.87 in 0.2 mi Calm Calm - N/A Fog Fog
4:35 AM 53.6 °F 53.6 °F 100% 29.87 in 0.2 mi Calm Calm - N/A Fog Fog
4:55 AM 53.6 °F 53.6 °F 100% 29.87 in 0.2 mi Calm Calm - N/A Fog Fog
5:15 AM 53.6 °F 53.6 °F 100% 29.87 in 0.2 mi Calm Calm - N/A Fog Fog
5:35 AM 53.6 °F 53.6 °F 100% 29.86 in 0.2 mi Calm Calm - N/A Fog Fog
5:55 AM 53.6 °F 53.6 °F 100% 29.87 in 0.2 mi Calm Calm - N/A Fog Fog
6:15 AM 53.6 °F 53.6 °F 100% 29.87 in 0.2 mi Calm Calm - N/A Fog Fog
6:35 AM 53.6 °F 53.6 °F 100% 29.87 in 0.2 mi Calm Calm - N/A Fog Fog
6:55 AM 53.6 °F 53.6 °F 100% 29.88 in 0.2 mi Calm Calm - N/A Fog Fog
7:15 AM 53.6 °F 53.6 °F 100% 29.88 in 0.2 mi Calm Calm - N/A Fog Fog
7:35 AM 53.6 °F 53.6 °F 100% 29.88 in 0.2 mi Calm Calm - N/A Fog Fog
7:55 AM 53.6 °F 53.6 °F 100% 29.88 in 0.2 mi Calm Calm - N/A Fog Fog
8:15 AM 55.4 °F 53.6 °F 94% 29.88 in 1.2 mi Calm Calm - N/A   Overcast
8:35 AM 55.4 °F 53.6 °F 94% 29.88 in 3.0 mi Calm Calm - N/A   Overcast
8:55 AM 55.4 °F 55.4 °F 100% 29.88 in 7.0 mi Calm Calm - N/A   Mostly Cloudy
9:15 AM 59.0 °F 55.4 °F 88% 29.88 in 10.0 mi Calm Calm - N/A   Clear
9:35 AM 60.8 °F 57.2 °F 88% 29.88 in 10.0 mi West 3.5 mph - N/A   Clear
9:55 AM 64.4 °F 55.4 °F 73% 29.87 in 10.0 mi West 3.5 mph - N/A   Clear
10:15 AM 68.0 °F 53.6 °F 60% 29.87 in 10.0 mi West 3.5 mph - N/A   Clear
10:35 AM 71.6 °F 51.8 °F 50% 29.87 in 10.0 mi West 3.5 mph - N/A   Clear
10:55 AM 73.4 °F 50.0 °F 44% 29.86 in 10.0 mi West 3.5 mph - N/A   Clear
11:15 AM 77.0 °F 50.0 °F 39% 29.85 in 10.0 mi West 4.6 mph - N/A   Clear
11:35 AM 80.6 °F 46.4 °F 30% 29.85 in 10.0 mi WSW 4.6 mph - N/A   Clear
11:55 AM 82.4 °F 46.4 °F 28% 29.85 in 10.0 mi West 5.8 mph - N/A   Clear
12:15 PM 86.0 °F 48.2 °F 27% 29.84 in 10.0 mi West 4.6 mph - N/A   Clear
12:35 PM 86.0 °F 48.2 °F 27% 29.84 in 10.0 mi West 4.6 mph - N/A   Clear
12:55 PM 87.8 °F 50.0 °F 27% 29.83 in 10.0 mi West 9.2 mph - N/A   Clear
1:15 PM 87.8 °F 48.2 °F 25% 29.83 in 10.0 mi West 11.5 mph - N/A   Clear
1:35 PM 87.8 °F 48.2 °F 25% 29.82 in 10.0 mi West 11.5 mph - N/A   Clear
1:55 PM 87.8 °F 44.6 °F 22% 29.82 in 10.0 mi West 11.5 mph - N/A   Clear
2:15 PM 87.8 °F 46.4 °F 24% 29.82 in 10.0 mi West 12.7 mph - N/A   Clear
2:35 PM 87.8 °F 46.4 °F 24% 29.81 in 10.0 mi West 12.7 mph - N/A   Clear
2:55 PM 89.6 °F 46.4 °F 22% 29.80 in 10.0 mi West 10.4 mph - N/A   Clear
3:15 PM 87.8 °F 48.2 °F 25% 29.79 in 10.0 mi West 9.2 mph - N/A   Clear
3:35 PM 87.8 °F 50.0 °F 27% 29.79 in 10.0 mi West 10.4 mph - N/A   Clear
3:55 PM 87.8 °F 50.0 °F 27% 29.79 in 10.0 mi West 9.2 mph - N/A   Clear
4:15 PM 87.8 °F 50.0 °F 27% 29.78 in 10.0 mi West 9.2 mph - N/A   Clear
4:35 PM 87.8 °F 50.0 °F 27% 29.78 in 10.0 mi West 9.2 mph - N/A   Clear
4:55 PM 86.0 °F 51.8 °F 31% 29.77 in 10.0 mi West 9.2 mph - N/A   Clear
5:15 PM 82.4 °F 51.8 °F 35% 29.77 in 10.0 mi West 10.4 mph - N/A   Clear
5:35 PM 80.6 °F 51.8 °F 37% 29.77 in 10.0 mi West 10.4 mph - N/A   Clear
5:55 PM 80.6 °F 51.8 °F 37% 29.78 in 10.0 mi West 9.2 mph - N/A   Clear
6:15 PM 77.0 °F 51.8 °F 41% 29.78 in 10.0 mi West 10.4 mph - N/A   Clear
6:35 PM 71.6 °F 53.6 °F 53% 29.79 in 10.0 mi West 10.4 mph - N/A   Clear
6:55 PM 69.8 °F 53.6 °F 56% 29.79 in 10.0 mi West 10.4 mph - N/A   Clear
7:15 PM 68.0 °F 53.6 °F 60% 29.79 in 10.0 mi West 9.2 mph - N/A   Clear
7:35 PM 64.4 °F 53.6 °F 68% 29.80 in 10.0 mi WSW 8.1 mph - N/A   Clear
7:55 PM 62.6 °F 53.6 °F 72% 29.81 in 10.0 mi West 10.4 mph - N/A   Clear
8:15 PM 62.6 °F 53.6 °F 72% 29.81 in 10.0 mi West 5.8 mph - N/A   Clear
8:35 PM 60.8 °F 53.6 °F 77% 29.81 in 10.0 mi WSW 4.6 mph - N/A   Clear
8:55 PM 60.8 °F 53.6 °F 77% 29.82 in 10.0 mi WSW 3.5 mph - N/A   Clear
9:15 PM 59.0 °F 53.6 °F 82% 29.82 in 10.0 mi SW 4.6 mph - N/A   Clear
9:35 PM 59.0 °F 53.6 °F 82% 29.82 in 10.0 mi WSW 4.6 mph - N/A   Clear
9:55 PM 59.0 °F 53.6 °F 82% 29.82 in 10.0 mi WSW 3.5 mph - N/A   Clear
10:15 PM 57.2 °F 53.6 °F 88% 29.82 in 10.0 mi WSW 4.6 mph - N/A   Clear
10:35 PM 57.2 °F 53.6 °F 88% 29.83 in 10.0 mi West 3.5 mph - N/A   Clear
10:55 PM 57.2 °F 53.6 °F 88% 29.82 in 10.0 mi Calm Calm - N/A   Clear
11:15 PM 55.4 °F 53.6 °F 94% 29.83 in 10.0 mi Calm Calm - N/A   Clear
11:35 PM 55.4 °F 51.8 °F 88% 29.83 in 10.0 mi Calm Calm - N/A   Clear
11:55 PM 55.4 °F 51.8 °F 88% 29.82 in 10.0 mi Calm Calm - N/A   Clear